| time (UTC) | temp C | wind direction | speed KPH | gust KPH | rain 1hr cm | rain 24hr cm | rain mn cm | humidity % | barometer mb |
| 20260507051613 | 14 | 0.0 | 0.0 | 0.00 | 0.00 | 0.00 | 71 | 722.3 | |
| 20260507044549 | 13 | 0.0 | 0.0 | 0.00 | 0.00 | 0.00 | 74 | 721.8 | |
| 20260507043037 | 13 | 0.0 | 0.0 | 0.00 | 0.00 | 0.00 | 76 | 721.2 | |
| 20260507041526 | 12 | 0.0 | 0.0 | 0.00 | 0.00 | 0.00 | 76 | 720.6 | |
| 20260507040014 | 12 | 0.0 | 0.0 | 0.00 | 0.00 | 0.00 | 75 | 720.9 | |
| 20260507034502 | 13 | 0.0 | 0.0 | 0.00 | 0.00 | 0.00 | 74 | 721.3 | |
| 20260507032950 | 13 | 0.0 | 0.0 | 0.00 | 0.00 | 0.00 | 73 | 721.6 | |
| 20260507031439 | 13 | 0.0 | 0.0 | 0.00 | 0.00 | 0.00 | 72 | 722.0 | |
| 20260507025927 | 14 | 0.0 | 0.0 | 0.00 | 0.00 | 0.00 | 70 | 722.4 | |
| 20260507024417 | 15 | 0.0 | 0.0 | 0.00 | 0.00 | 0.00 | 69 | 722.9 | |
| 20260507022903 | 14 | 0.0 | 0.0 | 0.00 | 0.00 | 0.00 | 69 | 722.8 | |
| 20260507021352 | 15 | 0.0 | 0.0 | 0.00 | 0.00 | 0.00 | 68 | 723.0 | |
| 20260507015840 | 15 | 0.0 | 0.0 | 0.00 | 0.00 | 0.00 | 69 | 722.9 | |
| 20260507014328 | 14 | 0.0 | 0.0 | 0.00 | 0.00 | 0.00 | 69 | 722.8 | |
| 20260507012821 | 15 | 0.0 | 0.0 | 0.00 | 0.00 | 0.00 | 69 | 723.1 | |
| 20260507011304 | 15 | 0.0 | 0.0 | 0.00 | 0.00 | 0.00 | 69 | 723.3 | |
| 20260507005755 | 15 | 0.0 | 0.0 | 0.00 | 0.00 | 0.00 | 69 | 723.0 | |
| 20260507004243 | 15 | 0.0 | 0.0 | 0.00 | 0.00 | 0.00 | 69 | 723.1 | |
| 20260507002729 | 15 | 0.0 | 0.0 | 0.00 | 0.00 | 0.00 | 69 | 723.1 | |
| 20260507001218 | 15 | 0.0 | 0.0 | 0.00 | 0.00 | 0.00 | 69 | 723.1 | |
| 20260506235728 | 15 | 0.0 | 0.0 | 0.00 | 0.00 | 0.00 | 70 | 723.3 | |
| 20260506234154 | 15 | 0.0 | 0.0 | 0.00 | 0.00 | 0.00 | 70 | 723.4 | |
| 20260506232654 | 15 | 0.0 | 0.0 | 0.00 | 0.00 | 0.00 | 69 | 723.6 | |
| 20260506231131 | 15 | 0.0 | 0.0 | 0.00 | 0.00 | 0.00 | 69 | 723.5 | |
| 20260506225619 | 15 | 0.0 | 0.0 | 0.00 | 0.00 | 0.00 | 68 | 723.7 | |
| 20260506224107 | 15 | 0.0 | 0.0 | 0.00 | 0.00 | 0.00 | 69 | 723.9 | |
| 20260506222555 | 16 | 0.0 | 0.0 | 0.00 | 0.00 | 0.00 | 73 | 724.1 | |
| 20260506221044 | 16 | 0.0 | 0.0 | 0.00 | 0.00 | 0.00 | 73 | 724.2 | |
| 20260506215532 | 16 | 0.0 | 0.0 | 0.00 | 0.00 | 0.00 | 74 | 724.3 | |
| 20260506214020 | 16 | 0.0 | 0.0 | 0.00 | 0.00 | 0.00 | 76 | 724.8 | |
| 20260506212508 | 16 | 0.0 | 0.0 | 0.00 | 0.00 | 0.00 | 73 | 724.9 | |
| 20260506210958 | 17 | 0.0 | 0.0 | 0.00 | 0.00 | 0.00 | 73 | 725.8 | |
| 20260506205445 | 17 | 0.0 | 0.0 | 0.00 | 0.00 | 0.00 | 72 | 725.9 | |
| 20260506203933 | 17 | 0.0 | 0.0 | 0.00 | 0.00 | 0.00 | 69 | 726.1 | |
| 20260506202421 | 17 | 0.0 | 0.0 | 0.00 | 0.00 | 0.00 | 65 | 726.1 | |
| 20260506200910 | 18 | 0.0 | 0.0 | 0.00 | 0.00 | 0.00 | 59 | 726.8 | |
| 20260506195358 | 18 | 0.0 | 0.0 | 0.00 | 0.00 | 0.00 | 56 | 727.4 | |
| 20260506193846 | 19 | 0.0 | 0.0 | 0.00 | 0.00 | 0.00 | 53 | 728.2 | |
| 20260506192335 | 20 | 0.0 | 0.0 | 0.00 | 0.00 | 0.00 | 49 | 729.0 | |
| 20260506190823 | 21 | 0.0 | 0.0 | 0.00 | 0.00 | 0.00 | 46 | 729.9 | |
| 20260506183759 | 22 | 0.0 | 0.0 | 0.00 | 0.00 | 0.00 | 36 | 732.2 | |
| 20260506182247 | 23 | 0.0 | 0.0 | 0.00 | 0.00 | 0.00 | 37 | 732.6 | |
| 20260506180736 | 23 | 0.0 | 0.0 | 0.00 | 0.00 | 0.00 | 34 | 733.6 | |
| 20260506175224 | 24 | 0.0 | 0.0 | 0.00 | 0.00 | 0.00 | 34 | 734.0 | |
| 20260506173712 | 25 | 0.0 | 0.0 | 0.00 | 0.00 | 0.00 | 32 | 734.9 | |
| 20260506172201 | 26 | 0.0 | 0.0 | 0.00 | 0.00 | 0.00 | 29 | 736.7 | |
| 20260506170649 | 32 | 0.0 | 0.0 | 0.00 | 0.00 | 0.00 | 24 | 743.2 | |
| 20260506165137 | 26 | 0.0 | 0.0 | 0.00 | 0.00 | 0.00 | 32 | 736.2 | |
| 20260506163625 | 25 | 0.0 | 0.0 | 0.00 | 0.00 | 0.00 | 32 | 735.4 | |
| 20260506162114 | 26 | 0.0 | 0.0 | 0.00 | 0.00 | 0.00 | 32 | 736.7 | |
| 20260506160602 | 26 | 0.0 | 0.0 | 0.00 | 0.00 | 0.00 | 33 | 736.0 | |
| 20260506155050 | 26 | 0.0 | 0.0 | 0.00 | 0.00 | 0.00 | 33 | 735.9 | |
| 20260506153538 | 26 | 0.0 | 0.0 | 0.00 | 0.00 | 0.00 | 32 | 735.9 | |
| 20260506152026 | 26 | 0.0 | 0.0 | 0.00 | 0.00 | 0.00 | 32 | 736.4 | |
| 20260506150516 | 27 | 0.0 | 0.0 | 0.00 | 0.00 | 0.00 | 31 | 737.2 | |
| 20260506145003 | 27 | 0.0 | 0.0 | 0.00 | 0.00 | 0.00 | 31 | 737.9 | |
| 20260506143451 | 28 | 0.0 | 0.0 | 0.00 | 0.00 | 0.00 | 30 | 738.8 | |
| 20260506141939 | 31 | 0.0 | 0.0 | 0.00 | 0.00 | 0.00 | 27 | 741.9 | |
| 20260506140428 | 35 | 0.0 | 0.0 | 0.00 | 0.00 | 0.00 | 24 | 746.6 | |
| 20260506134916 | 35 | 0.0 | 0.0 | 0.00 | 0.00 | 0.00 | 25 | 746.7 | |
| 20260506133404 | 34 | 0.0 | 0.0 | 0.00 | 0.00 | 0.00 | 26 | 745.4 | |
| 20260506131852 | 32 | 0.0 | 0.0 | 0.00 | 0.00 | 0.00 | 28 | 744.0 | |
| 20260506130341 | 32 | 0.0 | 0.0 | 0.00 | 0.00 | 0.00 | 30 | 743.1 | |
| 20260506124829 | 32 | 0.0 | 0.0 | 0.00 | 0.00 | 0.00 | 29 | 743.1 | |
| 20260506123317 | 30 | 0.0 | 0.0 | 0.00 | 0.00 | 0.00 | 29 | 741.5 | |
| 20260506121805 | 30 | 0.0 | 0.0 | 0.00 | 0.00 | 0.00 | 32 | 740.6 | |
| 20260506120254 | 28 | 0.0 | 0.0 | 0.00 | 0.00 | 0.00 | 36 | 739.4 | |
| 20260506114742 | 27 | 0.0 | 0.0 | 0.00 | 0.00 | 0.00 | 35 | 737.7 | |
| 20260506113230 | 26 | 0.0 | 0.0 | 0.00 | 0.00 | 0.00 | 39 | 736.5 | |
| 20260506111719 | 26 | 0.0 | 0.0 | 0.00 | 0.00 | 0.00 | 41 | 736.5 | |
| 20260506110207 | 26 | 0.0 | 0.0 | 0.00 | 0.00 | 0.00 | 42 | 735.7 | |
| 20260506104655 | 25 | 0.0 | 0.0 | 0.00 | 0.00 | 0.00 | 40 | 734.7 | |
| 20260506103143 | 24 | 0.0 | 0.0 | 0.00 | 0.00 | 0.00 | 41 | 734.3 | |
| 20260506101631 | 24 | 0.0 | 0.0 | 0.00 | 0.00 | 0.00 | 43 | 733.9 | |
| 20260506100120 | 23 | 0.0 | 0.0 | 0.00 | 0.00 | 0.00 | 46 | 733.6 | |
| 20260506094608 | 23 | 0.0 | 0.0 | 0.00 | 0.00 | 0.00 | 43 | 733.6 | |
| 20260506093056 | 23 | 0.0 | 0.0 | 0.00 | 0.00 | 0.00 | 44 | 733.2 | |
| 20260506091545 | 23 | 0.0 | 0.0 | 0.00 | 0.00 | 0.00 | 46 | 732.8 | |
| 20260506090033 | 22 | 0.0 | 0.0 | 0.00 | 0.00 | 0.00 | 49 | 732.3 | |
| 20260506084521 | 22 | 0.0 | 0.0 | 0.00 | 0.00 | 0.00 | 49 | 731.4 | |
| 20260506083009 | 21 | 0.0 | 0.0 | 0.00 | 0.00 | 0.00 | 52 | 730.8 | |
| 20260506081458 | 21 | 0.0 | 0.0 | 0.00 | 0.00 | 0.00 | 55 | 730.0 | |
| 20260506072922 | 19 | 0.0 | 0.0 | 0.00 | 0.00 | 0.00 | 66 | 728.0 | |
| 20260506071411 | 19 | 0.0 | 0.0 | 0.00 | 0.00 | 0.00 | 67 | 728.0 | |
| 20260506061324 | 17 | 0.0 | 0.0 | 0.00 | 0.00 | 0.00 | 76 | 725.9 |